Flag for Norway Weather past 2 weeks in Molde, Norway

Now
39 °F

Chilly.


Feels Like: 31 °F
Forecast: 40 / 47 °F
Wind: 14 mph from Northwest

Location: Molde / Aro

Current Time: Apr 26, 2015 at 2:14:30 AM

Latest Report: Apr 26, 2015 at 1:20 AM


Visibility: N/A

Pressure: 29.18 "Hg

Humidity: 70%

Dew point: 30 °F

Location of MoldeLocation

Historic Weather in Molde — Graph

°F

Molde temperature yesterday

Maximum temperature yesterday: 43 °F (at 1:20 PM)
Minimum temperature yesterday: 36 °F (at 6:50 AM)
Average temperature yesterday: 40 °F

Past Weeks' High & Low Weather Summary

 TemperatureHumidityPressure
High59 °F (Apr 11, 3:50 PM)100% (Apr 13, 3:20 AM)30.51 "Hg (Apr 13, 3:20 AM)
Low32 °F (Apr 14, 12:20 AM)39% (Apr 11, 3:50 PM)29.12 "Hg (Apr 25, 7:20 PM)
Average42 °F78%29.94 "Hg
* Reported Apr 11 12:20 AM — Apr 26 12:50 AM, Molde, Weather by CustomWeather, © 2015

Note: Actual official high and low records may vary slightly from our data, if they occured in-between our weather recording intervals... More about our weather records

Advertising

Molde weather history for previous 24 hours

 ConditionsComfort  
Time TempWeatherWind HumidityBarometerVisibility
12:50 AM
Sun, Apr 26
37 °FChilly.10 mph87%29.18 "HgN/A
12:20 AM39 °FPassing clouds.16 mph81%29.18 "HgN/A
11:50 PM
Sat, Apr 25
39 °FMostly cloudy.14 mph87%29.18 "HgN/A
10:50 PM41 °FMostly cloudy.16 mph87%29.15 "HgN/A
10:20 PM41 °FMore clouds than sun.15 mph87%29.15 "HgN/A
9:50 PM41 °FPartly sunny.16 mph87%29.15 "HgN/A
9:20 PM41 °FMostly cloudy.18 mph93%29.15 "HgN/A
8:50 PM43 °FLight rain. Partly sunny.7 mph87%29.12 "HgN/A
7:50 PM43 °FLight rain. Broken clouds.6 mph87%29.12 "HgN/A
7:20 PM43 °FLight rain. Broken clouds.5 mph87%29.12 "HgN/A
6:50 PM43 °FLight rain. Broken clouds.5 mph87%29.15 "HgN/A
6:20 PM43 °FLight rain. Broken clouds.7 mph87%29.15 "HgN/A
5:50 PM43 °FLight rain. Broken clouds.5 mph93%29.18 "HgN/A
5:20 PM43 °FLight rain. Broken clouds.6 mph87%29.21 "HgN/A
4:50 PM43 °FLight rain. Broken clouds.6 mph93%29.21 "HgN/A
3:50 PM43 °FLight rain. Broken clouds.10 mph87%29.24 "HgN/A
3:20 PM43 °FLight rain. Broken clouds.9 mph87%29.27 "HgN/A
2:50 PM43 °FLight rain. Broken clouds.9 mph87%29.30 "HgN/A
2:20 PM43 °FLight rain. Broken clouds.7 mph81%29.30 "HgN/A
1:50 PM43 °FLight rain. Broken clouds.3 mph81%29.33 "HgN/A
1:20 PM43 °FLight rain. Broken clouds.2 mph76%29.33 "HgN/A
12:50 PM41 °FLight rain. Broken clouds.5 mph81%29.36 "HgN/A
12:20 PM41 °FLight rain. Broken clouds.7 mph87%29.36 "HgN/A
11:50 AM41 °FLight rain. Broken clouds.7 mph81%29.39 "HgN/A
11:20 AM39 °FSprinkles. Broken clouds.7 mph87%29.39 "HgN/A
10:50 AM39 °FLight rain. Broken clouds.7 mph87%29.42 "HgN/A
10:20 AM39 °FLight rain. Broken clouds.8 mph87%29.42 "HgN/A
9:50 AM37 °FLight rain. Broken clouds.8 mph93%29.42 "HgN/A
9:20 AM37 °FSprinkles. Broken clouds.8 mph87%29.42 "HgN/A
8:50 AM37 °FLight rain. Broken clouds.8 mph87%29.42 "HgN/A
8:20 AM37 °FLight rain. Broken clouds.6 mph87%29.42 "HgN/A
7:50 AM37 °FLight rain. Broken clouds.7 mph81%29.45 "HgN/A
7:20 AM37 °FLight rain. Broken clouds.6 mph81%29.45 "HgN/A
6:50 AM36 °FLight rain. Broken clouds.7 mph87%29.45 "HgN/A
6:20 AM37 °FLight rain. Partly cloudy.6 mph75%29.45 "HgN/A
5:50 AM37 °FLight rain. Fog.6 mph70%29.45 "HgN/A
5:20 AM37 °FLight rain. Mostly cloudy.7 mph65%29.45 "HgN/A
4:50 AM37 °FPassing clouds.8 mph70%29.47 "HgN/A
4:20 AM37 °FPassing clouds.13 mph70%29.47 "HgN/A
3:50 AM37 °FMostly cloudy.10 mph65%29.47 "HgN/A
3:20 AM37 °FMostly cloudy.10 mph70%29.47 "HgN/A
2:50 AM37 °FOvercast.13 mph70%29.47 "HgN/A
2:20 AM37 °FMostly cloudy.12 mph75%29.50 "HgN/A
Weather by CustomWeather, © 2015

See weather overviewHow to use our weather pages